Bryce, UT

1:05 AM MST on January 18, 2017 (GMT -0700)
Bryce Canyon

Weather History for KBCE - December, 2012

Change the Weather History Date:

Wednesday, December 19, 2012

  Actual Average Record
Temperature  
Mean Temperature 2 °F -  
Max Temperature 15 °F 37 °F 50 °F (1973)
Min Temperature -11 °F 11 °F -11 °F (2012)
Degree Days  
Heating Degree Days 63    
Moisture  
Dew Point 3 °F    
Average Humidity 80    
Maximum Humidity 91    
Minimum Humidity 61    
Precipitation  
Precipitation 0.01 in - - ()
Sea Level Pressure  
Sea Level Pressure 29.93 in    
Wind  
Wind Speed 14 mph (WNW)    
Max Wind Speed 22 mph    
Max Gust Speed 31 mph    
Visibility 7 miles    
Events Snow    
Averages and records for this station are not official NWS values.
T = Trace of Precipitation, MM = Missing Value Source: NWS Daily Summary

Daily Weather History Graph

Daily Weather History Graph

Search for Another Location

Airport or City:

Trip Planner

Search our weather history database for the weather conditions in past years. The results will help you decide how hot, cold, wet, or windy it might be!

Date:

Astronomy

Dec. 19, 2012 Rise Set
Actual Time 7:39 AM MST 5:12 PM MST
Civil Twilight 7:09 AM MST 5:42 PM MST
Nautical Twilight 6:37 AM MST 6:15 PM MST
Astronomical Twilight 6:05 AM MST 6:47 PM MST
Moon 11:57 AM MST (12/19) No Moon Set
Length of Visible Light 10h 32m
Length of Day
9h 33m
Waxing Crescent, 45% of the Moon is Illuminated
Dec 19
Waxing Crescent
Dec 19
First Quarter
Dec 28
Full
Jan 4
Last Quarter
Jan 11
New

Hourly Weather History & Observations

Time (MST) Temp. Windchill Dew Point Humidity Pressure Visibility Wind Dir Wind Speed Gust Speed Precip Events Conditions
12:00 AM 15.8 °F 5.1 °F 12.2 °F 86% 29.58 in 1.5 mi NW 8.1 mph 18.4 mph 0.00 in Snow Light Snow
12:08 AM 15.8 °F 4.2 °F 12.2 °F 86% 29.58 in 1.0 mi NW 9.2 mph - 0.00 in Snow Light Snow
12:17 AM 15.8 °F 4.2 °F 12.2 °F 86% 29.58 in 2.0 mi WNW 9.2 mph - 0.00 in Snow Light Snow
12:28 AM 15.8 °F 2.1 °F 12.2 °F 86% 29.58 in 3.0 mi WNW 12.7 mph - 0.00 in Snow Light Snow
12:53 AM 15.1 °F 3.3 °F 10.9 °F 84% 29.56 in 4.0 mi NW 9.2 mph - 0.00 in Snow Light Snow
1:08 AM 15.8 °F 2.1 °F 10.4 °F 79% 29.58 in 3.0 mi NW 12.7 mph - 0.00 in Snow Light Snow
1:14 AM 15.8 °F 0.9 °F 10.4 °F 79% 29.58 in 1.8 mi NW 15.0 mph - 0.00 in Snow Light Snow
1:44 AM 14.0 °F -3.0 °F 10.4 °F 86% 29.58 in 2.5 mi WNW 18.4 mph 24.2 mph 0.00 in Snow Light Snow
1:53 AM 14.0 °F -3.4 °F 10.0 °F 84% 29.55 in 3.0 mi WNW 19.6 mph - 0.00 in Snow Light Snow
2:10 AM 12.2 °F -6.3 °F 8.6 °F 85% 29.59 in 4.0 mi WNW 20.7 mph 28.8 mph 0.00 in Snow Light Snow
2:53 AM 12.0 °F -6.5 °F 7.0 °F 80% 29.59 in 9.0 mi WNW 20.7 mph 27.6 mph 0.00 in   Overcast
3:53 AM 10.9 °F -7.5 °F 6.1 °F 81% 29.62 in 10.0 mi WNW 19.6 mph - 0.00 in   Overcast
4:53 AM 9.0 °F -11.0 °F 3.9 °F 80% 29.68 in 4.0 mi WNW 21.9 mph - N/A   Haze
5:04 AM 8.6 °F -11.4 °F 3.2 °F 79% 29.67 in 4.0 mi WNW 21.9 mph 31.1 mph 0.00 in Snow Light Snow
5:53 AM 8.1 °F -12.2 °F 3.0 °F 80% 29.73 in 5.0 mi WNW 21.9 mph 29.9 mph 0.00 in   Overcast
6:26 AM 6.8 °F -13.4 °F 1.4 °F 79% 29.74 in 10.0 mi NW 20.7 mph - 0.00 in   Mostly Cloudy
6:35 AM 6.8 °F -13.4 °F 1.4 °F 79% 29.75 in 10.0 mi NW 20.7 mph - 0.00 in   Scattered Clouds
6:53 AM 6.1 °F -10.2 °F 1.9 °F 83% 29.81 in 9.0 mi NW 12.7 mph 21.9 mph 0.00 in   Scattered Clouds
7:05 AM 6.8 °F -10.7 °F 1.4 °F 79% 29.78 in 8.0 mi NW 15.0 mph - N/A   Mostly Cloudy
7:38 AM 6.8 °F -13.4 °F 1.4 °F 79% 29.82 in 6.0 mi NW 20.7 mph 29.9 mph 0.01 in   Scattered Clouds
7:53 AM 6.1 °F -12.2 °F 1.0 °F 80% 29.91 in 9.0 mi WNW 16.1 mph - 0.01 in   Partly Cloudy
8:53 AM 7.0 °F -12.6 °F 1.0 °F 77% 29.97 in 10.0 mi WNW 19.6 mph - N/A   Clear
9:53 AM 9.0 °F -8.5 °F 1.9 °F 73% 30.02 in 10.0 mi WNW 16.1 mph - N/A   Clear
10:53 AM 10.9 °F -5.4 °F 3.0 °F 70% 30.08 in 10.0 mi WNW 15.0 mph - N/A   Clear
11:53 AM 12.9 °F -4.9 °F 5.0 °F 71% 30.09 in 10.0 mi WNW 19.6 mph 27.6 mph N/A   Clear
12:53 PM 14.0 °F -2.5 °F 6.1 °F 71% 30.11 in 10.0 mi West 17.3 mph - N/A   Clear
1:53 PM 14.0 °F -3.0 °F 6.1 °F 71% 30.15 in 10.0 mi WNW 18.4 mph 25.3 mph N/A   Clear
2:53 PM 15.1 °F -1.1 °F 3.9 °F 61% 30.19 in 10.0 mi WNW 17.3 mph - N/A   Clear
3:53 PM 14.0 °F -2.0 °F 5.0 °F 67% 30.23 in 10.0 mi WNW 16.1 mph - N/A   Clear
4:53 PM 10.0 °F -0.9 °F 3.0 °F 73% 30.29 in 10.0 mi NW 6.9 mph - N/A   Clear
5:53 PM -0.9 °F -11.0 °F -5.1 °F 83% 30.40 in 10.0 mi WNW 4.6 mph - N/A   Clear
6:53 PM -5.1 °F -13.6 °F -7.1 °F 91% 30.44 in 10.0 mi SSW 3.5 mph - N/A   Clear
7:53 PM -4.0 °F -22.1 °F -7.1 °F 87% 30.49 in 10.0 mi West 11.5 mph - N/A   Clear
8:53 PM -11.0 °F -20.4 °F -15.0 °F 83% 30.55 in 10.0 mi West 3.5 mph - N/A   Clear
9:53 PM -9.0 °F -28.4 °F -13.0 °F 83% 30.54 in 10.0 mi West 11.5 mph - N/A   Clear
10:53 PM -9.9 °F -28.6 °F -14.1 °F 82% 30.55 in 10.0 mi West 10.4 mph - N/A   Clear
11:53 PM -11.9 °F -31.0 °F -16.1 °F 82% 30.56 in 10.0 mi West 10.4 mph - N/A   Clear